Temp
83 81 84 86 87 84 86 86 84 86 86 85 84 83 83 81 79 79 79 80 79 78 80 79 79 80 82 82 80 77 77 79 72 73 78 81 84 85 85 86 87 84 80
84 87 87 88 88 88 84 84 84 87 86 84 84 83 81 81 80 79 78 79 78 78 79 78 78 79 79 80 81 77 76 77 75 73 79 82 82 84 84 82 87 94 83
87 89 88 88 89 89 87 86 86 84 85 85 83 81 81 82 80 79 78 78 78 78 79 79 79 78 77 79 77 79 79 78 76 74 77 81 82 83 81 82 83 83 89
85 86 84 85 86 85 82 82 82 82 82 82 82 81 81 81 81 81 79 78 77 78 79 79 79 79 77 77 77 76 79 78 77 75 78 79 79 81 81 79 78 80 81
84 83 83 84 84 82 81 80 81 80 81 80 79 80 80 81 85 79 80 79 77 76 77 77 78 79 77 76 78 77 76 74 75 73 77 77 79 79 79 81 79 79 79
84 82 83 82 82 81 80 79 79 78 78 78 78 78 78 82 75 72 73 78 77 76 75 76 77 73 75 71 70 73 76 74 73 72 72 72 75 78 79 80 77 74 70
83 82 81 80 79 78 78 77 77 76 77 76 76 77 76 77 72 71 71 77 77 76 75 75 76 80 75 77 73 69 69 70 72 75 72 75 73 75 77 77 78 76 74
81 81 80 79 78 78 77 76 75 76 75 75 75 75 75 76 70 69 70 73 75 76 76 76 75 76 77 75 76 75 76 75 74 76 77 78 78 79 77 78 76 76 78
79 79 79 79 77 76 74 74 74 73 74 74 75 75 74 75 68 67 68 75 76 75 77 77 76 76 72 69 75 73 74 73 71 66 68 71 71 72 70 74 73 71 74
78 78 78 77 75 73 73 72 72 72 72 75 74 75 73 73 69 65 66 75 73 75 75 76 70 73 68 65 71 73 72 73 75 75 75 70 68 74 70 72 74 71 70
77 76 75 75 73 73 72 72 71 71 71 71 72 73 73 72 73 65 64 71 74 74 75 76 79 67 63 63 63 73 72 74 73 73 73 73 74 75 77 79 77 74 72
72 72 72 72 73 73 70 69 69 68 68 69 69 71 74 73 68 67 64 63 70 73 73 76 76 65 59 59 61 64 62 63 71 72 70 70 70 72 74 75 79 78 80
69 69 69 69 70 70 68 67 67 67 68 69 71 70 72 74 75 66 62 61 62 67 74 71 65 60 57 58 59 61 61 68 69 70 71 71 70 69 72 74 75 76 77
65 66 67 66 65 66 69 70 69 66 64 64 64 63 66 70 72 74 67 67 65 67 66 69 66 65 65 69 68 64 68 70 71 71 72 75 76 72 71 72 70 72 72
62 63 63 64 63 61 62 64 66 67 64 65 68 69 68 68 71 61 58 67 65 63 59 65 65 66 67 69 70 71 72 71 71 72 73 74 76 75 73 73 72 72 70
55 57 59 58 58 58 59 60 60 56 55 52 51 55 68 61 56 54 53 48 48 50 60 63 63 65 66 65 66 68 70 71 72 74 74 74 72 71 70 71 72 72 71
58 58 59 58 60 60 59 59 59 63 57 54 53 51 48 51 49 48 47 48 48 48 61 64 65 67 70 70 68 68 71 72 72 70 71 73 73 72 68 70 71 71 71
57 55 59 59 59 58 58 57 58 56 58 63 61 54 55 50 49 47 46 45 58 58 60 63 65 68 70 71 72 72 72 71 72 71 71 72 74 73 71 71 71 69 70
59 57 57 58 58 57 57 57 57 57 57 59 62 60 59 52 49 47 45 55 62 64 67 68 69 69 70 72 72 73 73 72 72 70 72 71 74 73 73 73 73 65 67
59 58 57 56 57 56 55 55 54 54 54 54 55 57 60 58 58 59 63 61 63 66 68 68 70 72 72 72 72 73 73 70 72 72 73 74 74 75 74 74 74 73 74
58 57 56 56 54 54 54 54 53 51 50 51 54 56 51 54 56 58 62 65 64 66 68 70 71 72 73 73 73 73 73 73 71 71 72 74 75 74 75 76 77 77 77
56 54 54 52 52 51 50 50 50 48 48 50 52 54 48 53 55 58 61 65 68 68 69 67 69 69 75 75 74 74 74 73 73 73 72 75 75 78 75 74 76 77 75
54 53 51 49 48 48 47 48 47 46 46 48 48 50 51 53 56 58 59 63 66 68 67 69 68 71 72 73 77 76 75 75 75 77 74 72 73 74 75 72 71 72 72
53 49 46 45 45 43 44 45 45 44 45 46 47 49 50 52 55 57 59 61 64 66 68 68 67 67 70 71 75 80 77 77 79 78 77 72 74 68 73 72 73 73 72
49 46 44 42 41 41 41 42 42 43 45 46 46 48 49 52 52 54 55 57 60 63 67 68 68 74 78 75 74 77 62 56 70 60 68 72 72 73 72 72 72 72 72
47 46 43 41 39 39 39 39 41 42 42 44 45 45 47 49 50 51 54 55 58 58 60 65 68 72 72 72 73 67 44 43 57 44 70 73 72 70 69 69 70 69 70
MSLP
1010.43 1010.93 1011.34 1011.69 1012.01 1012.13 1012.06 1012.15 1012.47 1012.59 1012.83 1013.08 1012.94 1012.86 1012.99 1013.28 1013.50 1013.34 1013.20 1013.10 1013.06 1013.18 1012.98 1012.78 1012.90 1013.22 1013.21 1013.07 1013.31 1013.84 1013.98 1013.78 1014.09 1014.17 1013.73 1013.53 1012.60 1012.68 1012.61 1012.44 1012.33 1012.55 1012.75
1010.86 1011.15 1011.51 1011.70 1011.93 1011.82 1011.88 1012.01 1012.19 1012.35 1012.60 1012.76 1012.87 1012.91 1012.98 1012.91 1012.76 1012.68 1012.57 1012.37 1012.37 1012.52 1012.46 1012.55 1012.64 1012.67 1012.83 1013.16 1013.16 1013.49 1013.88 1013.55 1013.74 1013.73 1013.37 1013.10 1012.46 1012.34 1012.31 1012.30 1012.22 1011.92 1012.29
1010.90 1010.93 1011.14 1011.48 1011.56 1011.52 1011.80 1011.96 1012.02 1012.14 1012.35 1012.58 1012.76 1012.72 1012.59 1012.39 1012.34 1012.15 1012.03 1011.96 1011.92 1011.82 1011.85 1011.80 1011.82 1012.12 1012.22 1012.16 1012.25 1012.66 1012.98 1013.32 1013.26 1013.31 1013.02 1012.21 1011.97 1011.94 1012.07 1012.02 1011.90 1011.88 1011.58
1010.97 1011.24 1011.57 1011.74 1011.94 1012.11 1012.33 1012.44 1012.45 1012.37 1012.34 1012.39 1012.46 1012.43 1012.33 1012.13 1011.92 1011.60 1011.45 1011.38 1011.23 1011.20 1011.18 1011.08 1011.06 1011.10 1011.39 1011.48 1011.68 1011.96 1012.15 1012.42 1012.56 1012.67 1012.73 1012.33 1012.01 1011.80 1011.73 1011.76 1011.74 1011.39 1011.25
1011.65 1011.86 1011.99 1012.12 1012.25 1012.44 1012.63 1012.79 1012.79 1012.72 1012.52 1012.42 1012.36 1012.19 1012.08 1011.87 1011.52 1011.25 1011.26 1011.19 1011.17 1010.99 1010.85 1010.69 1010.55 1010.55 1010.55 1010.71 1010.98 1011.11 1011.57 1011.66 1011.76 1011.99 1012.08 1012.05 1011.86 1011.81 1011.72 1011.31 1011.03 1010.75 1010.79
1011.81 1011.96 1012.06 1012.21 1012.34 1012.49 1012.64 1012.75 1012.74 1012.68 1012.59 1012.45 1012.24 1012.09 1011.95 1011.72 1011.45 1011.18 1011.22 1011.11 1010.92 1010.84 1010.62 1010.37 1010.27 1010.14 1010.37 1010.40 1010.59 1010.54 1010.68 1011.05 1011.29 1011.51 1011.53 1011.67 1011.52 1011.23 1011.11 1010.92 1010.67 1010.82 1011.40
1011.78 1012.00 1012.16 1012.27 1012.38 1012.48 1012.56 1012.57 1012.52 1012.42 1012.24 1012.03 1011.85 1011.66 1011.54 1011.44 1011.19 1011.01 1011.00 1011.06 1010.73 1010.46 1010.34 1010.18 1010.04 1009.82 1009.90 1010.05 1010.07 1010.19 1010.39 1010.39 1010.41 1010.67 1010.90 1010.84 1010.86 1010.75 1010.76 1010.39 1010.12 1010.16 1010.68
1011.61 1011.79 1011.92 1012.02 1012.12 1012.17 1012.20 1012.23 1012.14 1011.99 1011.79 1011.53 1011.25 1011.09 1011.00 1010.93 1010.84 1010.64 1010.53 1010.70 1010.43 1010.06 1009.86 1009.79 1009.70 1009.53 1009.43 1009.45 1009.47 1009.54 1009.54 1009.69 1009.87 1010.11 1010.20 1010.00 1010.10 1010.15 1010.25 1010.31 1010.00 1009.87 1009.79
1011.38 1011.47 1011.58 1011.67 1011.77 1011.91 1012.02 1012.05 1011.96 1011.77 1011.40 1010.99 1010.65 1010.46 1010.40 1010.32 1010.30 1010.10 1010.02 1009.98 1009.72 1009.44 1009.13 1009.05 1009.09 1009.04 1008.94 1009.04 1009.00 1009.02 1009.00 1008.97 1008.71 1008.92 1009.20 1008.98 1009.11 1009.16 1009.65 1009.96 1009.83 1010.00 1009.85
1011.31 1011.33 1011.46 1011.62 1011.71 1011.77 1011.78 1011.73 1011.55 1011.31 1010.92 1010.50 1010.05 1009.79 1009.55 1009.53 1009.55 1009.47 1009.48 1009.36 1008.98 1008.69 1008.44 1008.21 1008.18 1008.16 1008.15 1008.22 1008.56 1008.49 1008.53 1008.55 1008.62 1008.57 1008.57 1008.81 1008.67 1008.65 1008.62 1009.13 1009.33 1009.61 1009.61
1011.48 1011.36 1011.41 1011.40 1011.42 1011.40 1011.27 1011.12 1010.95 1010.69 1010.34 1010.01 1009.54 1009.18 1008.99 1008.97 1008.86 1008.76 1008.59 1008.61 1008.28 1007.88 1007.74 1007.48 1007.11 1006.94 1007.02 1007.38 1007.50 1007.74 1007.68 1007.77 1008.04 1008.18 1008.16 1008.12 1007.89 1007.59 1007.70 1007.87 1007.98 1008.38 1008.75
1011.95 1011.83 1011.55 1011.29 1011.31 1011.16 1011.08 1010.91 1010.65 1010.40 1009.98 1009.35 1008.91 1008.44 1008.04 1007.86 1007.76 1007.70 1007.43 1007.26 1007.12 1007.21 1007.02 1006.85 1006.56 1006.47 1006.48 1006.77 1007.13 1007.09 1007.13 1007.48 1007.87 1007.89 1007.83 1007.51 1007.19 1006.85 1006.81 1006.61 1007.02 1007.04 1007.05
1012.26 1012.04 1011.84 1011.40 1011.23 1011.06 1010.82 1010.48 1010.14 1009.81 1009.38 1008.69 1008.12 1007.75 1007.45 1007.20 1006.84 1006.65 1006.67 1006.47 1006.33 1006.77 1006.63 1006.47 1006.26 1006.17 1006.23 1006.36 1006.44 1006.37 1006.58 1007.19 1007.15 1006.98 1006.63 1006.22 1005.88 1005.78 1005.83 1005.96 1006.05 1006.29 1006.61
1012.73 1012.38 1012.03 1011.60 1011.20 1011.04 1010.54 1010.11 1009.57 1009.44 1009.16 1008.76 1008.38 1007.87 1007.55 1007.05 1006.88 1006.67 1006.92 1006.75 1006.83 1006.82 1006.89 1006.67 1006.48 1006.17 1005.97 1005.83 1005.84 1006.08 1006.20 1006.22 1006.14 1005.79 1005.55 1005.01 1004.85 1005.08 1005.11 1005.11 1005.29 1005.80 1006.22
1013.27 1012.76 1012.36 1011.96 1011.60 1011.18 1010.65 1010.08 1009.50 1009.01 1008.70 1008.41 1007.93 1007.40 1007.03 1006.72 1006.54 1006.53 1006.69 1006.62 1006.86 1006.79 1006.79 1006.28 1005.97 1005.61 1005.16 1005.10 1005.08 1005.05 1005.05 1005.14 1005.10 1004.86 1004.65 1004.41 1004.12 1004.19 1004.44 1004.47 1004.72 1005.01 1005.30
1013.86 1013.22 1012.64 1012.36 1011.66 1011.09 1010.32 1009.32 1008.58 1008.13 1007.76 1007.58 1007.33 1007.25 1006.46 1006.25 1006.05 1006.02 1005.97 1005.92 1006.41 1006.48 1006.44 1005.89 1005.40 1004.89 1004.48 1004.20 1004.23 1004.11 1004.04 1003.94 1003.95 1003.76 1003.62 1003.55 1003.53 1003.60 1003.79 1003.97 1004.24 1004.33 1004.49
1013.66 1013.14 1012.57 1012.02 1011.26 1010.56 1009.91 1009.14 1008.07 1007.22 1006.98 1006.57 1006.16 1005.91 1005.95 1006.00 1005.87 1005.73 1005.70 1005.61 1005.63 1006.10 1005.31 1004.62 1004.12 1003.61 1003.13 1003.06 1003.08 1003.11 1002.88 1002.83 1002.84 1002.87 1002.88 1002.71 1002.83 1002.98 1003.05 1003.26 1003.08 1003.36 1003.50
1013.67 1013.14 1012.49 1011.71 1011.15 1010.57 1009.87 1009.17 1008.54 1007.82 1006.84 1005.92 1005.31 1005.19 1004.95 1005.08 1005.02 1004.66 1004.58 1005.05 1004.99 1004.52 1004.12 1003.42 1002.76 1002.20 1001.88 1001.76 1001.65 1001.66 1001.84 1001.87 1001.93 1001.96 1001.94 1001.82 1001.82 1001.88 1002.07 1002.07 1002.19 1002.29 1002.43
1013.15 1012.66 1012.09 1011.44 1010.82 1010.19 1009.51 1008.80 1008.14 1007.52 1006.88 1006.07 1005.37 1004.97 1004.72 1004.45 1004.18 1003.80 1003.78 1003.97 1003.21 1002.60 1002.01 1001.41 1000.99 1000.72 1000.53 1000.40 1000.36 1000.40 1000.39 1000.62 1000.76 1000.79 1000.78 1000.89 1000.76 1000.99 1000.98 1000.94 1001.00 1001.08 1001.06
1012.69 1012.15 1011.60 1010.90 1010.18 1009.56 1008.90 1008.26 1007.74 1007.21 1006.62 1006.10 1005.47 1004.77 1004.47 1004.26 1003.71 1003.22 1002.76 1002.19 1001.74 1000.96 1000.50 1000.04 999.56 999.09 998.94 999.09 999.17 999.21 999.16 999.33 999.69 999.79 999.86 999.83 999.86 999.94 999.86 999.83 1000.07 1000.12 1000.24
1012.28 1011.70 1011.15 1010.39 1009.73 1009.12 1008.59 1008.09 1007.90 1007.46 1006.73 1005.98 1005.17 1004.72 1004.44 1004.07 1003.39 1002.77 1001.86 1000.92 1000.22 999.52 999.05 998.65 998.28 998.03 997.76 997.58 997.78 997.96 998.01 998.04 998.31 998.55 998.71 998.63 998.63 998.74 998.75 998.93 998.87 998.83 999.02
1012.09 1011.45 1010.80 1010.24 1009.74 1009.10 1008.57 1008.05 1007.60 1007.11 1006.46 1005.42 1004.78 1004.30 1003.91 1003.39 1002.52 1001.37 1000.56 999.66 998.77 998.12 997.60 997.54 997.29 997.09 996.54 996.23 996.40 996.62 996.65 996.69 996.95 997.20 997.43 997.64 997.55 997.38 997.58 997.82 997.82 997.79 998.07
1011.87 1011.33 1010.83 1010.17 1009.60 1008.85 1008.16 1007.52 1007.01 1006.68 1005.95 1005.17 1004.66 1003.98 1003.23 1002.37 1001.32 1000.42 999.58 998.56 997.76 997.11 996.62 996.17 996.05 995.95 995.80 995.61 995.17 995.21 995.34 995.31 995.43 995.74 996.04 996.35 996.59 996.66 996.64 996.84 997.01 997.38 997.69
1011.95 1011.44 1010.84 1010.13 1009.40 1008.77 1007.94 1007.14 1006.66 1006.16 1005.49 1004.83 1004.11 1003.34 1002.63 1001.71 1000.67 999.85 999.02 998.12 996.98 996.04 995.44 995.05 994.96 994.99 994.65 994.57 994.33 993.87 993.73 993.93 994.09 994.24 994.36 995.01 995.38 995.54 995.85 996.32 996.68 996.85 997.11
1012.19 1011.46 1010.78 1010.06 1009.34 1008.52 1007.74 1006.99 1006.35 1005.73 1004.98 1004.33 1003.63 1002.87 1002.20 1001.36 1000.38 999.64 998.85 998.03 996.78 996.15 994.92 994.19 993.98 993.57 992.91 992.98 993.17 993.13 993.13 993.22 993.27 993.23 993.45 994.93 994.83 994.88 995.34 995.71 996.03 996.33 996.48
1012.06 1011.31 1010.54 1009.80 1009.01 1008.28 1007.52 1006.75 1006.01 1005.29 1004.58 1003.87 1003.21 1002.62 1002.00 1001.10 1000.28 999.50 998.65 998.10 996.99 996.35 995.61 994.36 993.69 993.10 992.72 992.39 992.19 991.86 992.46 992.75 993.05 993.09 993.68 993.93 994.15 994.15 994.73 995.24 995.56 995.77 995.81
Wind_Speed
6 7 6 3 5 6 4 2 5 4 3 3 5 6 5 5 7 9 11 11 10 10 11 10 12 9 7 3 4 3 6 4 5 7 9 12 4 4 4 3 3 6 7
7 4 4 4 2 4 6 5 5 1 3 4 5 5 6 7 7 7 10 10 13 13 13 13 10 8 9 7 5 6 5 7 3 8 7 9 5 5 5 5 4 5 4
8 10 6 4 4 2 5 6 5 4 3 4 5 6 6 6 7 8 8 10 12 14 13 12 14 10 10 8 10 8 7 7 6 4 7 4 2 2 4 5 5 6 5
8 8 6 5 6 7 8 7 8 6 5 5 6 5 6 7 8 9 9 8 11 12 15 15 15 14 12 12 10 8 7 7 5 6 7 6 3 4 4 4 5 5 5
4 4 3 3 4 4 5 6 7 7 7 7 8 8 8 9 9 6 5 5 7 10 12 14 13 15 17 13 9 11 9 9 8 5 7 7 8 6 8 5 7 4 6
2 3 4 4 4 4 4 5 6 7 9 9 9 8 9 8 12 13 7 8 7 9 11 11 11 9 9 13 15 15 10 10 11 7 7 9 10 7 8 8 3 2 2
2 3 4 4 5 5 6 7 7 8 9 10 11 9 9 9 12 13 9 8 9 9 9 9 9 8 8 10 11 13 15 15 14 11 11 11 11 7 6 4 4 3 5
4 4 5 5 6 6 7 7 8 9 10 10 11 10 10 9 12 14 11 7 9 10 10 9 8 9 8 6 7 8 10 12 14 12 12 12 12 12 9 6 5 3 3
6 5 5 6 6 6 8 8 9 11 11 11 11 11 11 11 13 13 10 10 11 12 11 10 10 11 10 9 8 5 6 8 10 14 14 14 15 14 10 5 8 7 6
7 6 6 6 7 8 9 10 11 12 13 11 13 13 14 13 13 14 12 9 12 10 11 11 14 15 15 13 9 8 7 7 6 7 7 8 12 15 15 10 10 10 8
10 8 8 8 9 10 11 10 10 11 12 12 13 12 11 11 12 14 16 10 11 12 10 9 9 17 19 17 15 10 11 8 8 6 6 5 7 9 10 11 13 11 11
10 11 10 9 9 11 13 12 13 12 14 12 13 11 10 11 14 16 21 20 20 13 12 10 10 6 12 14 11 12 10 4 6 9 8 8 8 7 8 12 13 11 13
11 11 11 10 9 11 11 12 10 10 12 11 9 9 9 9 8 9 11 17 18 12 10 10 11 9 10 9 14 14 11 6 7 8 10 11 10 11 8 6 10 12 14
13 12 10 10 10 11 10 11 9 9 9 9 8 6 7 7 8 9 1 4 7 5 7 6 8 11 11 9 8 9 6 9 9 10 10 10 8 6 8 7 7 11 7
11 12 12 11 12 12 11 9 10 11 10 11 11 8 9 10 9 4 8 9 6 6 3 5 6 6 9 9 9 10 9 10 11 11 10 10 10 8 9 9 9 9 10
10 10 9 10 9 10 10 12 14 16 18 16 17 13 9 12 15 15 16 10 6 7 4 7 8 8 9 6 9 9 9 11 11 11 10 10 8 6 7 8 9 9 9
12 13 10 11 11 11 11 11 12 11 15 14 16 16 11 14 16 20 13 14 12 6 9 9 11 11 10 9 9 10 10 9 11 9 8 8 9 10 9 10 9 9 10
12 14 11 11 10 11 11 11 11 12 13 12 11 9 7 10 18 18 17 5 9 8 9 11 13 11 11 11 10 10 11 8 9 9 10 10 11 9 9 8 9 9 9
12 10 10 10 11 12 12 12 11 12 11 12 12 12 12 12 16 19 8 9 12 11 11 12 13 12 12 12 11 11 12 11 10 9 9 9 10 9 11 10 9 11 14
12 18 17 11 11 12 11 10 10 11 11 10 11 13 12 11 10 11 10 8 11 11 12 13 13 11 12 12 12 12 11 11 11 10 10 10 10 10 10 11 11 10 9
11 13 21 13 11 10 9 11 10 12 11 12 11 11 16 11 12 13 14 12 12 13 12 11 12 12 11 11 11 10 12 11 11 10 10 10 11 10 11 11 12 10 9
12 13 12 11 11 12 11 11 11 11 13 12 11 12 16 11 13 13 13 13 13 14 11 12 12 10 11 11 11 12 11 10 11 11 10 11 11 11 10 11 12 10 8
12 12 13 12 12 16 11 11 9 11 12 11 12 12 11 11 11 10 11 12 13 12 11 11 11 11 12 9 10 11 12 12 11 11 12 11 11 10 8 7 6 9 8
13 13 13 13 11 12 12 11 10 13 12 11 12 10 11 11 10 11 12 11 13 12 11 12 8 13 13 14 11 11 11 14 13 13 17 10 13 11 10 8 9 11 9
12 12 12 12 12 11 11 11 10 11 10 10 11 10 10 11 11 11 11 12 11 12 11 12 9 13 14 16 15 17 1 5 7 6 2 10 7 7 7 8 8 9 12
11 12 11 10 10 11 10 10 10 10 10 10 10 10 10 9 11 11 10 10 10 10 14 10 12 17 18 13 19 21 9 14 10 7 8 10 8 5 5 8 12 10 11
Wind_Direction
78 82 72 95 206 216 234 227 236 259 297 276 305 313 290 260 256 252 244 240 230 242 255 262 220 220 234 225 169 213 282 278 222 222 191 237 184 203 169 221 178 190 195
102 115 157 150 3 238 205 237 239 25 19 338 320 266 240 264 275 263 261 253 248 241 239 252 258 235 233 237 230 180 222 263 265 287 211 214 194 201 198 208 234 262 138
160 191 119 142 206 274 29 6 6 349 323 327 316 309 316 279 262 262 262 266 264 255 245 233 237 230 232 230 234 216 204 224 252 230 273 297 266 216 194 212 205 221 260
33 32 35 21 8 10 7 354 339 332 316 309 296 292 305 297 293 287 255 259 266 264 257 248 241 234 228 234 231 236 217 227 224 226 247 258 262 281 244 192 227 223 224
52 21 358 351 350 344 331 317 314 312 308 309 300 291 292 284 281 295 321 292 284 285 284 272 260 252 245 229 228 238 237 245 229 228 245 236 240 243 253 233 215 210 214
340 316 345 351 333 306 298 293 287 286 286 282 282 285 282 280 294 305 293 302 296 294 286 275 279 274 266 254 238 236 223 226 240 235 234 237 243 232 245 252 214 172 18
294 285 286 279 275 271 267 265 268 269 271 266 266 266 275 280 280 284 291 290 286 282 285 281 271 258 252 263 252 247 259 247 228 230 238 243 258 262 276 274 251 209 184
273 279 269 261 262 266 272 282 284 278 271 269 262 258 262 268 268 272 279 273 276 273 269 265 260 262 261 270 262 257 248 243 234 236 236 243 247 260 265 253 255 273 308
273 276 286 282 296 313 307 301 298 292 287 279 269 262 258 261 255 260 275 277 274 272 268 250 254 257 248 250 257 249 254 249 257 248 250 252 241 247 246 267 256 253 261
308 316 329 308 301 298 299 299 292 283 278 276 272 265 260 262 258 253 260 268 269 264 266 254 234 240 240 222 225 236 252 258 265 265 252 242 245 254 246 237 250 249 235
343 340 327 312 304 298 291 289 291 295 294 288 281 275 275 274 271 261 254 256 260 265 261 264 261 228 224 228 225 233 244 259 274 289 279 263 250 242 242 237 226 222 234
325 310 298 302 307 305 302 297 293 291 283 279 276 271 263 257 247 253 249 237 248 251 257 258 269 266 218 225 224 235 236 253 263 260 254 255 250 245 230 241 232 223 228
332 325 318 313 304 298 302 294 285 281 280 276 283 281 287 279 261 288 281 264 258 271 276 296 293 185 203 214 221 212 216 222 238 241 241 241 242 239 236 246 255 243 240
327 315 310 311 313 307 302 301 298 302 294 292 290 294 300 312 309 294 75 25 9 2 344 328 284 249 234 239 217 230 224 227 230 232 239 253 234 233 219 203 223 254 233
330 323 319 317 316 310 299 293 294 286 282 287 289 283 286 284 280 283 288 296 299 291 299 305 297 287 274 238 227 231 221 228 230 237 239 244 246 224 220 223 226 221 213
317 311 306 301 296 293 289 292 270 256 268 274 272 258 276 266 280 276 278 290 191 149 286 284 273 261 251 233 237 230 235 234 235 241 230 234 241 242 240 231 227 223 219
314 317 319 308 300 294 293 289 291 294 276 273 272 263 235 251 274 277 266 271 272 228 269 260 250 243 244 231 232 237 236 231 241 244 258 246 240 239 235 231 228 221 223
310 303 302 302 301 297 294 294 295 294 297 299 282 258 267 287 281 269 260 191 267 226 244 249 248 246 239 242 242 232 240 240 240 233 235 231 235 231 233 237 220 222 226
316 304 297 295 292 290 288 284 285 289 290 291 294 295 299 296 282 272 256 243 254 253 248 246 235 233 236 239 239 238 232 227 229 238 233 234 234 225 234 231 233 225 206
304 310 308 299 297 294 287 290 295 289 287 287 286 287 290 286 286 290 277 255 250 243 243 245 248 248 225 228 232 237 241 220 229 235 237 231 225 225 228 228 231 234 235
315 311 308 295 300 298 312 308 307 300 294 289 284 290 281 281 284 278 279 275 263 250 245 248 249 244 244 232 230 236 242 229 220 227 235 235 222 222 227 231 231 230 240
316 309 309 315 311 299 298 287 288 292 289 284 292 289 285 281 276 265 260 264 266 267 256 242 244 248 250 236 224 232 235 222 214 218 225 241 239 231 219 229 238 231 227
314 321 314 309 307 303 294 287 285 293 285 290 294 288 286 284 288 299 287 274 270 271 267 254 240 237 240 265 240 225 228 230 225 217 222 222 236 244 246 239 225 220 237
329 318 316 312 311 308 301 299 294 288 287 290 287 290 289 291 289 294 297 296 297 269 264 260 234 234 240 245 248 252 210 222 223 228 222 214 221 205 221 252 247 246 245
326 322 320 317 314 308 305 300 298 294 290 293 289 291 293 294 295 298 303 306 310 308 299 277 273 266 265 231 238 251 176 337 241 197 80 284 215 230 246 244 237 247 240
328 323 318 316 311 310 305 302 299 297 296 295 294 294 290 295 295 293 298 305 303 317 309 298 303 282 269 265 268 249 187 183 196 238 226 207 218 217 229 242 246 241 232